CGHAB CYMM-CYMM

Flight info

Callsign CGHAB
Flight time 0h 13m
Altitude
Route CYMM/26
Aircraft

Departure

Time 2026-05-06 00:39
Airport Fort McMurray International Airport (CYMM)

Arrival

Time 2026-05-06 00:53
Airport Fort McMurray International Airport (CYMM)
Time Latitude Longitude Altitude Speed Heading
2026-05-06 00:33 56.65511 -111.23457 1211 ft 0 kts
2026-05-06 00:34 56.65555 -111.23544 1211 ft 12 kts 233°
2026-05-06 00:34 56.65546 -111.23556 1211 ft 1 kts 267°
2026-05-06 00:35 56.65523 -111.23470 1211 ft 10 kts 344°
2026-05-06 00:35 56.65517 -111.23467 1211 ft 1 kts 332°
2026-05-06 00:35 56.65508 -111.23465 1211 ft 0 kts 29°
2026-05-06 00:35 56.65511 -111.23443 1211 ft 0 kts 120°
2026-05-06 00:37 56.65484 -111.23298 1211 ft 23 kts 90°
2026-05-06 00:37 56.65487 -111.23006 1211 ft 21 kts 90°
2026-05-06 00:38 56.65487 -111.22720 1211 ft 24 kts 90°
2026-05-06 00:38 56.65489 -111.22415 1211 ft 25 kts 90°
2026-05-06 00:38 56.65420 -111.22232 1212 ft 19 kts 182°
2026-05-06 00:38 56.65340 -111.22244 1212 ft 10 kts 219°
2026-05-06 00:39 56.65320 -111.22657 1211 ft 77 kts 269°
2026-05-06 00:39 56.65309 -111.23998 1418 ft 124 kts 270°
2026-05-06 00:39 56.65286 -111.25805 1661 ft 162 kts 269°
2026-05-06 00:39 56.65295 -111.27854 2191 ft 154 kts 263°
2026-05-06 00:40 56.64648 -111.29340 2415 ft 170 kts 200°
2026-05-06 00:40 56.63479 -111.29604 2527 ft 166 kts 181°
2026-05-06 00:40 56.62443 -111.28686 2381 ft 179 kts 124°
2026-05-06 00:40 56.62259 -111.26338 2349 ft 202 kts 91°
2026-05-06 00:41 56.62289 -111.23973 2397 ft 165 kts 89°
2026-05-06 00:41 56.62289 -111.21980 2493 ft 156 kts 92°
2026-05-06 00:41 56.62275 -111.19970 2416 ft 165 kts 92°
2026-05-06 00:41 56.62277 -111.17835 2432 ft 166 kts 86°
2026-05-06 00:42 56.62410 -111.15719 2412 ft 171 kts 71°
2026-05-06 00:42 56.63216 -111.14261 2146 ft 167 kts 15°
2026-05-06 00:42 56.64288 -111.14408 1980 ft 145 kts 349°
2026-05-06 00:42 56.65021 -111.15640 1733 ft 158 kts 291°
2026-05-06 00:43 56.65336 -111.17457 1675 ft 135 kts 274°
2026-05-06 00:43 56.65327 -111.18987 1528 ft 111 kts 271°
2026-05-06 00:43 56.65322 -111.20342 1307 ft 103 kts 273°
2026-05-06 00:43 56.65320 -111.21571 1216 ft 89 kts 271°
2026-05-06 00:44 56.65321 -111.22668 1212 ft 111 kts 271°
2026-05-06 00:44 56.65296 -111.24385 1396 ft 157 kts 268°
2026-05-06 00:44 56.65302 -111.26468 1862 ft 170 kts 271°
2026-05-06 00:44 56.65200 -111.28617 2502 ft 176 kts 263°
2026-05-06 00:45 56.64536 -111.30394 2190 ft 180 kts 197°
2026-05-06 00:45 56.63339 -111.30224 2071 ft 173 kts 170°
2026-05-06 00:45 56.62364 -111.29094 1932 ft 178 kts 108°
2026-05-06 00:45 56.62587 -111.26902 1910 ft 190 kts 84°
2026-05-06 00:46 56.62531 -111.24415 2168 ft 203 kts 95°
2026-05-06 00:46 56.62531 -111.21857 2136 ft 189 kts 90°
2026-05-06 00:46 56.62544 -111.19622 2023 ft 162 kts 90°
2026-05-06 00:46 56.62519 -111.17743 2027 ft 144 kts 92°
2026-05-06 00:47 56.62944 -111.16221 1981 ft 150 kts 24°
2026-05-06 00:47 56.63987 -111.16157 1964 ft 138 kts
2026-05-06 00:47 56.64794 -111.16577 1684 ft 123 kts 316°
2026-05-06 00:47 56.65207 -111.18059 1561 ft 132 kts 288°
2026-05-06 00:48 56.65320 -111.19567 1369 ft 111 kts 271°
2026-05-06 00:48 56.65320 -111.20891 1229 ft 101 kts 272°
2026-05-06 00:48 56.65321 -111.22055 1212 ft 84 kts 271°
2026-05-06 00:48 56.65323 -111.23224 1230 ft 124 kts 271°
2026-05-06 00:49 56.65315 -111.25134 1500 ft 158 kts 270°
2026-05-06 00:49 56.65193 -111.27228 1958 ft 174 kts 265°
2026-05-06 00:49 56.64539 -111.28874 2151 ft 170 kts 191°
2026-05-06 00:49 56.63377 -111.28840 2442 ft 170 kts 170°
2026-05-06 00:50 56.62672 -111.27175 2347 ft 200 kts 85°
2026-05-06 00:50 56.62974 -111.24847 2174 ft 186 kts 83°
2026-05-06 00:50 56.62988 -111.22622 2231 ft 162 kts 97°
2026-05-06 00:50 56.62847 -111.20817 2385 ft 139 kts 97°
2026-05-06 00:51 56.62847 -111.19018 2492 ft 141 kts 89°
2026-05-06 00:51 56.62835 -111.17178 2436 ft 152 kts 93°
2026-05-06 00:51 56.63235 -111.15528 2439 ft 151 kts 26°
2026-05-06 00:51 56.64218 -111.15470 2251 ft 136 kts 353°
2026-05-06 00:52 56.65100 -111.15800 2038 ft 135 kts 330°
2026-05-06 00:52 56.65358 -111.17344 1819 ft 126 kts 269°
2026-05-06 00:52 56.65324 -111.18802 1591 ft 108 kts 272°
2026-05-06 00:52 56.65322 -111.20149 1318 ft 106 kts 271°
2026-05-06 00:53 56.65319 -111.21406 1217 ft 91 kts 271°
2026-05-06 00:53 56.65317 -111.22448 1212 ft 75 kts 271°
2026-05-06 00:53 56.65325 -111.23157 1211 ft 30 kts 288°
2026-05-06 00:53 56.65437 -111.23218 1211 ft 14 kts
2026-05-06 00:54 56.65495 -111.23200 1211 ft 14 kts 35°
2026-05-06 00:54 56.65583 -111.23124 1211 ft 8 kts 329°
2026-05-06 00:54 56.65551 -111.23180 1211 ft 6 kts 176°